DELTA 1 DEB, 10710

Orbit data source: Space-Track

DELTA 1 DEB, 10710 is space debris in LEO originally from a launch on Thu, 29 Jul 1976 UTC launched from the Air Force Western Test Range (AFWTR). Debris objects in space refer to the collection of defunct objects orbiting the Earth. Examples of debris include non-operational satellites, rocket bodies, and fragments generated from explosions, collisions, or faulty payload assembly.

Loading next visibility...
Identifier
10710, 1976-077AF
Orbit
LEO
Country
Flag of USUS
Related business
Manufacturer
Unknown
Mission
Spacecraft
Bus & Motor
Unknown
Mass
Unknown
Launch date (UTC)
1976-07-29 (50 years ago)
Launch vehicle
Unknown
Launch site
Air Force Western Test Range (AFWTR)
Object type
Payload
Rocket body
Debris
Shape & HBR
Unknown shape, 0.1 m
Radar Cross Section
Medium (>0.1 m² and <1 m²)

Expand to show TLE details & history
Last TLE update: 4 days ago

TLE from 4 days ago
0 DELTA 1 DEB
1 10710U 76077AF  26261.89225479  .00000297  00000-0  37813-2 0  9991
2 10710 101.8003  46.7794 0267950 249.0343 268.4660 11.99473149164017
Epoch: 2026-09-18T21:24Z
TLE epoch observation values (Epoch: 2026-09-18T21:24:50.813Z)
Latitude
25.01453°
Longitude
-86.67348°
Altitude
1,697.45 km
Speed
7.024 km/s
True Right ascension
15h 29m 23s
True Declination
24° 53' 54"
Sunlit
Object was in daylight at epoch
Visualization orbit readout
Latitude
Unknown
Longitude
Unknown
Altitude
Unknown
Speed
Unknown
Apparent Right ascension
Unknown
Apparent Declination
Unknown
Sunlit
N/A
Visualization observer readout
Local Sidereal Time
19:30:00
Azimuth
Unknown
Elevation
Unknown
Doppler factor
Unknown
Orbital elements
Apogee altitude
1,896.774 km
Perigee altitude
1,464.894 km
Semi-major axis
8,058.971 km
Eccentricity
0.0268
Inclination
101.8003°
RAAN
46.7794°
Arg. of periapsis
249.0343°
True anomaly
265.40083°
Mean anomaly
268.466°
Eccentric anomaly
266.93296°
Mean motion
3.00002 °/min
Orbital period
120 mins
BSTAR
0.0037813
Loading maneuver chart data...
Computing Atmospheric mass density...
Loading historical data...
Loading historical data...
Loading historical data...
Loading historical data...
Loading historical data...
Loading historical data...
Loading historical data...

Documentation

Showing up to 5 results
|